TJS-19

导读 | 豆包AI

TJS-19(通信技术试验卫星十九号)由中国于2025年5月12日发射,部署于地球同步轨道,是我国通信技术试验卫星系列最新成员之一。该卫星任务徽章采用“南方增长天王”设计,引发国际航天领域广泛关注与解读,外界猜测其或具备空间态势感知、技术试验等能力,将服务于我国空间技术验证与太空安全保障,进一步提升我国同步轨道空间态势感知能力。

基本信息
目录编号:
63924
目录名称:
TJS-19
国际标识:
2025-097A
轨道中心:
EARTH
卫星名称:
TJS-19
卫星全名:
TJS-19
卫星状态:
在轨 (已飞行353 天)
发射日期:
2025-05-12 UTC
国别 :
中国 (CN)
星等 :
--
轨道信息
数据来源 国际轨道数据 AOE轨道数据
星历时间 2026-04-30T01:44:39+0800
19小时前
查看轨道信息
2026-04-28T18:00:00+0800
2天前
查看轨道信息
半长轴 42164.083km 42163.999km
偏心率 0.0000784 0.0000868
轨道倾角 3.369° 3.371°
近地点辐角 301.408° 305.605°
升交点赤经 316.681° 316.663°
平近点角 7.010° 245.356°
近地点 35782.64km 35782.202km
远地点 35789.252km 35789.522km
周期 1436.064分钟 1436.059分钟
每日圈数 1.002741 1.002744
详细信息
使用方式:
暂无
2D轨道图
3D轨道图
轨道高度分析图
轨道倾角分析图
轨道综合分析图
查看轨道综合分析图